When you browse on this site, cookies collect data to enhance your experience and personalize the content and advertising you see.
Visit our Privacy Policy to learn more. By continuing to use the site, you agree to this use of cookies and data.
  • In Portugal
  • List of Countries
  • For 7 days
  • Water Temperature
  • Satellite Maps
  • Weather Map
  • Weather Widgets
  • user-avatar
    Login

    Hourly Weather Zagarya

    Today, 26 April, Friday

    Time Temperature Precipitation Wind Pressure Humidity
    00:00 0°C° 0 mm 1 mps 750 mmHg 82%
    01:00 0°C° 0 mm 1 mps 751 mmHg 83%
    02:00 0°C° 0 mm 1 mps 750 mmHg 83%
    03:00 0°C° 0 mm 1 mps 750 mmHg 82%
    04:00 0°C° 0 mm 1 mps 750 mmHg 81%
    05:00 +1°C° 0 mm 1 mps 750 mmHg 76%
    06:00 +1°C° 0 mm 2 mps 750 mmHg 71%
    07:00 +2°C° 0 mm 2 mps 749 mmHg 66%
    08:00 +3°C° 0.3 mm 3 mps 749 mmHg 63%
    09:00 +4°C° 0.3 mm 3 mps 749 mmHg 60%
    10:00 +5°C° 0.3 mm 4 mps 749 mmHg 57%
    11:00 +6°C° 0.2 mm 4 mps 748 mmHg 55%
    12:00 +6°C° 0.2 mm 4 mps 748 mmHg 53%
    13:00 +6°C° 0.2 mm 4 mps 748 mmHg 50%
    14:00 +6°C° 0.1 mm 4 mps 748 mmHg 50%
    15:00 +6°C° 0.1 mm 4 mps 748 mmHg 49%
    16:00 +6°C° 0.1 mm 5 mps 748 mmHg 49%
    17:00 +5°C° 0 mm 4 mps 748 mmHg 52%
    18:00 +4°C° 0 mm 3 mps 748 mmHg 56%
    19:00 +4°C° 0 mm 2 mps 748 mmHg 60%
    20:00 +2°C° 0 mm 2 mps 748 mmHg 65%
    21:00 +2°C° 0 mm 1 mps 748 mmHg 70%
    22:00 +1°C° 0 mm 1 mps 749 mmHg 75%
    23:00 0°C° 0 mm 1 mps 749 mmHg 77%

    Tomorrow, 27 April, Saturday

    Time Temperature Precipitation Wind Pressure Humidity
    00:00 0°C° 0 mm 1 mps 749 mmHg 79%
    01:00 -2°C° 0 mm 0 mps 748 mmHg 81%
    02:00 -2°C° 0 mm 0 mps 748 mmHg 81%
    03:00 -1°C° 0 mm 1 mps 748 mmHg 81%
    04:00 -1°C° 0 mm 1 mps 748 mmHg 81%
    05:00 0°C° 0 mm 1 mps 747 mmHg 77%
    06:00 -1°C° 0 mm 2 mps 747 mmHg 73%
    07:00 +2°C° 0 mm 2 mps 746 mmHg 69%
    08:00 +1°C° 0.6 mm 3 mps 746 mmHg 69%
    09:00 +1°C° 0.6 mm 4 mps 745 mmHg 69%
    10:00 +3°C° 0.6 mm 4 mps 744 mmHg 70%
    11:00 +4°C° 1.2 mm 4 mps 743 mmHg 70%
    12:00 +5°C° 1.2 mm 4 mps 742 mmHg 70%
    13:00 +6°C° 1.2 mm 4 mps 742 mmHg 70%
    14:00 +7°C° 0.3 mm 4 mps 741 mmHg 67%
    15:00 +8°C° 0.3 mm 4 mps 740 mmHg 64%
    16:00 +10°C° 0.3 mm 4 mps 740 mmHg 61%
    17:00 +8°C° 0.4 mm 4 mps 740 mmHg 68%
    18:00 +8°C° 0.4 mm 3 mps 740 mmHg 75%
    19:00 +7°C° 0.4 mm 3 mps 740 mmHg 83%
    20:00 +6°C° 1 mm 2 mps 740 mmHg 87%
    21:00 +5°C° 1 mm 2 mps 740 mmHg 92%
    22:00 +5°C° 1 mm 1 mps 740 mmHg 97%
    23:00 +3°C° 0.9 mm 2 mps 739 mmHg 96%

    Day after tomorrow, 28 April, Sunday

    Time Temperature Precipitation Wind Pressure Humidity
    00:00 +2°C° 0.9 mm 2 mps 739 mmHg 94%
    01:00 +1°C° 0.9 mm 2 mps 739 mmHg 93%
    02:00 +1°C° 1.2 mm 2 mps 739 mmHg 94%
    03:00 -1°C° 1.2 mm 2 mps 739 mmHg 94%
    04:00 -2°C° 1.2 mm 2 mps 738 mmHg 95%
    05:00 -1°C° 0.4 mm 3 mps 738 mmHg 94%
    06:00 -1°C° 0.4 mm 3 mps 738 mmHg 93%
    07:00 -1°C° 0.4 mm 3 mps 739 mmHg 92%
    08:00 -2°C° 0.2 mm 4 mps 739 mmHg 89%
    09:00 -1°C° 0.2 mm 4 mps 740 mmHg 86%
    10:00 0°C° 0.2 mm 4 mps 740 mmHg 84%
    11:00 0°C° 0.1 mm 4 mps 741 mmHg 80%
    12:00 +1°C° 0.1 mm 4 mps 741 mmHg 77%
    13:00 +1°C° 0.1 mm 4 mps 742 mmHg 73%
    14:00 +1°C° 0.1 mm 4 mps 742 mmHg 71%
    15:00 +3°C° 0.1 mm 4 mps 742 mmHg 69%
    16:00 +3°C° 0.1 mm 4 mps 742 mmHg 66%
    17:00 +1°C° 0.1 mm 4 mps 743 mmHg 69%
    18:00 +1°C° 0.1 mm 3 mps 743 mmHg 72%
    19:00 +1°C° 0.1 mm 3 mps 744 mmHg 75%
    20:00 -1°C° 0 mm 3 mps 744 mmHg 79%
    21:00 -2°C° 0 mm 2 mps 745 mmHg 82%
    22:00 -3°C° 0 mm 2 mps 745 mmHg 86%
    23:00 -3°C° 0 mm 2 mps 745 mmHg 87%

    29 April, Monday

    Time Temperature Precipitation Wind Pressure Humidity
    00:00 -4°C° 0 mm 2 mps 746 mmHg 88%
    01:00 -5°C° 0 mm 2 mps 746 mmHg 90%
    02:00 -5°C° 0 mm 2 mps 746 mmHg 90%
    03:00 -5°C° 0 mm 2 mps 747 mmHg 91%
    04:00 -6°C° 0 mm 2 mps 747 mmHg 92%
    05:00 -5°C° 0 mm 2 mps 748 mmHg 89%
    06:00 -4°C° 0 mm 2 mps 748 mmHg 87%
    07:00 -3°C° 0 mm 2 mps 749 mmHg 84%
    08:00 -2°C° 0.1 mm 2 mps 749 mmHg 80%
    09:00 -1°C° 0.1 mm 3 mps 749 mmHg 76%
    10:00 -1°C° 0.1 mm 3 mps 749 mmHg 72%
    11:00 0°C° 0.2 mm 3 mps 749 mmHg 68%
    12:00 +1°C° 0.2 mm 3 mps 749 mmHg 64%
    13:00 +2°C° 0.2 mm 3 mps 749 mmHg 59%
    14:00 +2°C° 0.2 mm 3 mps 749 mmHg 58%
    15:00 +2°C° 0.2 mm 3 mps 749 mmHg 58%
    16:00 +2°C° 0.2 mm 3 mps 749 mmHg 57%
    17:00 +1°C° 0.1 mm 3 mps 749 mmHg 61%
    18:00 0°C° 0.1 mm 3 mps 749 mmHg 64%
    19:00 +1°C° 0.1 mm 2 mps 749 mmHg 68%
    20:00 -2°C° 0 mm 2 mps 750 mmHg 72%
    21:00 -3°C° 0 mm 2 mps 750 mmHg 76%
    22:00 -4°C° 0 mm 2 mps 750 mmHg 80%
    23:00 -4°C° 0 mm 2 mps 750 mmHg 82%

    30 April, Tuesday

    Time Temperature Precipitation Wind Pressure Humidity
    00:00 -5°C° 0 mm 2 mps 749 mmHg 83%
    01:00 -3°C° 0 mm 1 mps 749 mmHg 84%
    02:00 -3°C° 0 mm 1 mps 749 mmHg 85%
    03:00 -3°C° 0 mm 1 mps 749 mmHg 85%
    04:00 -3°C° 0 mm 1 mps 749 mmHg 85%
    05:00 -2°C° 0 mm 1 mps 749 mmHg 80%
    06:00 -3°C° 0 mm 2 mps 749 mmHg 75%
    07:00 -2°C° 0 mm 2 mps 749 mmHg 70%
    08:00 -1°C° 0 mm 2 mps 749 mmHg 64%
    09:00 0°C° 0 mm 3 mps 749 mmHg 58%
    10:00 +1°C° 0 mm 3 mps 748 mmHg 53%
    11:00 +1°C° 0 mm 3 mps 748 mmHg 52%
    12:00 +1°C° 0 mm 3 mps 748 mmHg 51%
    13:00 +1°C° 0 mm 4 mps 747 mmHg 49%
    14:00 +1°C° 0 mm 4 mps 747 mmHg 50%
    15:00 +2°C° 0 mm 3 mps 747 mmHg 51%
    16:00 +2°C° 0 mm 3 mps 747 mmHg 52%
    17:00 +2°C° 0 mm 3 mps 747 mmHg 56%
    18:00 +1°C° 0 mm 3 mps 747 mmHg 60%
    19:00 +2°C° 0 mm 2 mps 746 mmHg 64%
    20:00 +1°C° 0 mm 2 mps 746 mmHg 67%
    21:00 -1°C° 0 mm 3 mps 746 mmHg 70%
    22:00 -2°C° 0 mm 3 mps 746 mmHg 72%
    23:00 -2°C° 0 mm 3 mps 746 mmHg 74%

    1 May, Wednesday

    Time Temperature Precipitation Wind Pressure Humidity
    00:00 -2°C° 0 mm 3 mps 746 mmHg 75%
    01:00 -2°C° 0 mm 3 mps 746 mmHg 77%
    02:00 -2°C° 0 mm 3 mps 746 mmHg 79%
    03:00 -4°C° 0 mm 3 mps 745 mmHg 81%
    04:00 -3°C° 0 mm 2 mps 745 mmHg 83%
    05:00 -2°C° 0 mm 2 mps 745 mmHg 79%
    06:00 -1°C° 0 mm 3 mps 745 mmHg 75%
    07:00 0°C° 0 mm 3 mps 745 mmHg 71%
    08:00 +1°C° 0 mm 3 mps 745 mmHg 69%
    09:00 +2°C° 0 mm 3 mps 745 mmHg 67%
    10:00 +4°C° 0 mm 4 mps 745 mmHg 66%
    11:00 +5°C° 0.1 mm 4 mps 745 mmHg 61%
    12:00 +5°C° 0.1 mm 4 mps 745 mmHg 57%
    13:00 +6°C° 0.1 mm 4 mps 745 mmHg 52%
    14:00 +6°C° 0 mm 4 mps 745 mmHg 53%
    15:00 +7°C° 0 mm 4 mps 745 mmHg 53%
    16:00 +7°C° 0 mm 4 mps 745 mmHg 54%
    17:00 +7°C° 0 mm 3 mps 746 mmHg 60%
    18:00 +5°C° 0 mm 3 mps 746 mmHg 66%
    19:00 +5°C° 0 mm 2 mps 746 mmHg 72%
    20:00 +4°C° 0 mm 2 mps 746 mmHg 77%
    21:00 +3°C° 0 mm 2 mps 746 mmHg 81%
    22:00 +2°C° 0 mm 2 mps 746 mmHg 86%
    23:00 +2°C° 0 mm 2 mps 746 mmHg 86%
    Show more